Stations météo

réclame
Mon MeteoGroup
Hawarden, Grande-Bretagne (3321): Température de l'air & dewpoint: 12.11.2018 04:00:00 - 18.11.2018 04:00:00 (GMT)Hawarden, Grande-Bretagne (3321): Température de l'air -20cm & Température de l'air -100cm: 12.11.2018 04:00:00 - 18.11.2018 04:00:00 (GMT)Hawarden, Grande-Bretagne (3321): Vitesse du vent & gusts: 12.11.2018 04:00:00 - 18.11.2018 04:00:00 (GMT)Hawarden, Grande-Bretagne (3321): Direction du vent: 12.11.2018 04:00:00 - 18.11.2018 04:00:00 (GMT)Hawarden, Grande-Bretagne (3321): reduced air pressure: 12.11.2018 04:00:00 - 18.11.2018 04:00:00 (GMT)Hawarden, Grande-Bretagne (3321): visibility: 12.11.2018 04:00:00 - 18.11.2018 04:00:00 (GMT)Hawarden, Grande-Bretagne (3321): Ensoleillement: 12.11.2018 04:00:00 - 18.11.2018 04:00:00 (GMT)Hawarden, Grande-Bretagne (3321): Quantités de précipitations: 12.11.2018 04:00:00 - 18.11.2018 04:00:00 (GMT)
Date & Time tt [°C] td [°C] tt -20cm [°C] tt -100cm [°C] ff [km/h] ff [knt] fx [km/h] fx [knt] dd ppp [hPa] vv [km] sd [min] rr [mm]
18.11.2018 04:00:00 - - - - - - - - - - - - -
18.11.2018 03:00:00 3,0 2,6 - - 4 2 - - S 1029,3 5 0 0,2
18.11.2018 02:00:00 2,6 2,1 - - 8 4 - - SW 1029,1 4,4 0 0,0
18.11.2018 01:00:00 3,1 2,4 - - 8 4 - - SSW 1029,0 4,9 0 0,0
18.11.2018 00:00:00 4,1 3,5 - - 11 6 - - S 1029,0 6 - 0,0
17.11.2018 23:00:00 3,5 2,8 - - 9 5 - - S 1029,0 6 0 0,0
17.11.2018 22:00:00 4,3 3,7 - - 15 8 - - SSE 1029,0 7 0 0,0
17.11.2018 21:00:00 4,4 3,6 - - 9 5 - - S 1028,8 5 0 0,0
17.11.2018 20:00:00 4,4 3,8 - - 8 4 - - SSE 1028,7 3,9 0 0,0
17.11.2018 19:00:00 4,7 4,0 - - 9 5 - - SSE 1028,3 8 0 0,0
17.11.2018 18:00:00 5,3 4,2 - - 8 4 - - SSE 1028,0 8 0 0,0
17.11.2018 17:00:00 6,6 4,7 - - 8 4 - - S 1027,9 7 0 0,0
17.11.2018 16:00:00 8,5 5,8 - - 13 7 - - SSE 1027,6 7 18 0,0
17.11.2018 15:00:00 10,0 6,3 - - 15 8 - - SE 1027,5 8 60 0,0
17.11.2018 14:00:00 10,0 6,3 - - 21 11 - - SSE 1027,6 8 60 0,0
17.11.2018 13:00:00 9,5 5,9 - - 21 11 - - SE 1027,7 8 54 0,0
17.11.2018 12:00:00 8,4 5,6 - - 21 11 - - SE 1027,9 10 24 0,0
17.11.2018 11:00:00 9,2 6,4 - - 24 13 - - SSE 1027,8 10 0 0,0
17.11.2018 10:00:00 8,8 7,4 - - 18 10 - - SE 1028,1 10 0 0,0
17.11.2018 09:00:00 8,8 7,8 9,7 10,9 18 10 - - SE 1027,8 10 0 0,0
17.11.2018 08:00:00 8,7 7,5 - - 18 10 - - SE 1027,4 9 0 0,0
17.11.2018 07:00:00 8,6 8,1 - - 16 9 - - SE 1027,0 4,4 0 0,0
17.11.2018 06:00:00 8,7 8,1 - - 18 10 - - SE 1026,7 10 0 0,0
17.11.2018 05:00:00 8,8 7,8 - - 24 13 - - SE 1026,6 12 0 0,0
17.11.2018 04:00:00 9,1 8,3 - - 18 10 - - SE 1026,6 8 0 0,0
17.11.2018 03:00:00 9,3 8,6 - - 16 9 - - SE 1026,5 6 0 0,0
17.11.2018 02:00:00 9,3 8,4 - - 18 10 - - SSE 1026,7 7 0 0,0
17.11.2018 01:00:00 9,9 9,0 - - 18 10 - - SSE 1026,3 6 0 0,0
17.11.2018 00:00:00 10,5 9,2 - - 18 10 - - SSE 1026,1 10 - 0,0
16.11.2018 23:00:00 11,3 9,6 - - 15 8 - - SE 1025,8 13 0 0,0
16.11.2018 22:00:00 11,6 9,8 - - 21 11 - - SSE 1025,4 9 0 0,0
16.11.2018 21:00:00 12,0 10,0 - - 18 10 - - SE 1025,2 9 0 0,0
16.11.2018 20:00:00 12,3 9,9 - - 16 9 - - SSE 1025,0 10 0 0,0
16.11.2018 19:00:00 12,5 10,3 - - 16 9 - - SE 1025,1 9 0 0,0
16.11.2018 18:00:00 12,8 10,4 - - 15 8 - - SE 1024,9 9 0 0,0
16.11.2018 17:00:00 12,7 10,6 - - 15 8 - - SE 1024,3 9 0 0,0
16.11.2018 16:00:00 12,8 10,6 - - 13 7 - - SE 1024,1 9 0 0,0
16.11.2018 15:00:00 12,8 10,5 - - 24 13 - - SSE 1024,2 9 0 0,0
16.11.2018 14:00:00 13,0 10,1 - - 18 10 - - SE 1024,2 9 0 0,0
16.11.2018 13:00:00 13,2 10,1 - - 16 9 - - SE 1024,3 9 0 0,0
16.11.2018 12:00:00 13,3 10,5 - - 18 10 - - SE 1024,1 9 0 0,0
16.11.2018 11:00:00 13,0 10,7 - - 16 9 - - SSE 1024,2 9 0 0,0
16.11.2018 10:00:00 12,6 11,5 - - 22 12 - - SSE 1023,9 7 0 0,0
16.11.2018 09:00:00 12,1 11,8 9,2 10,9 11 6 - - SSE 1023,5 5 0 0,0
16.11.2018 08:00:00 10,7 10,6 - - 11 6 - - SSE 1023,3 5 0 0,0
16.11.2018 07:00:00 9,7 9,6 - - 9 5 - - SSE 1022,8 10 0 0,0
16.11.2018 06:00:00 8,6 8,6 - - 8 4 - - SSE 1022,1 0,3 0 0,0
16.11.2018 05:00:00 8,1 7,9 - - 8 4 - - S 1021,8 0,3 0 0,0
16.11.2018 04:00:00 8,9 8,5 - - 5 3 - - S 1021,6 1,1 0 0,0
16.11.2018 03:00:00 9,7 8,9 - - 5 3 - - SSE 1021,4 2,8 0 0,0
16.11.2018 02:00:00 11,3 10,6 - - 9 5 - - S 1020,8 4,8 0 0,0
16.11.2018 01:00:00 11,0 10,2 - - 5 3 - - S 1020,9 5 0 0,0
16.11.2018 00:00:00 11,0 10,0 - - 15 8 - - SSE 1020,4 6 - 0,0
15.11.2018 23:00:00 11,4 10,1 - - 9 5 - - SSE 1020,2 7 0 0,0
15.11.2018 22:00:00 11,5 9,8 - - 11 6 - - SE 1020,2 9 0 0,0
15.11.2018 21:00:00 11,4 9,5 - - 13 7 - - ESE 1019,4 10 0 0,0
15.11.2018 20:00:00 9,6 8,8 - - 4 2 - - - 1019,1 10 0 0,0
15.11.2018 19:00:00 8,9 7,6 - - 4 2 - - - 1018,2 10 0 0,0
15.11.2018 18:00:00 9,8 8,0 - - 13 7 - - S 1017,8 10 0 0,0
15.11.2018 17:00:00 10,3 8,4 - - 18 10 - - S 1017,7 10 0 0,0
15.11.2018 16:00:00 11,7 9,3 - - 16 9 - - SSE 1017,2 10 42 0,0
15.11.2018 15:00:00 12,4 9,5 - - 11 6 - - SSE 1017,6 10 24 0,0
15.11.2018 14:00:00 12,7 9,6 - - 22 12 - - S 1017,8 10 30 0,0
15.11.2018 13:00:00 11,5 9,1 - - 31 17 - - S 1017,6 10 12 0,0
15.11.2018 12:00:00 11,3 8,8 - - 21 11 - - SSE 1017,5 10 42 0,0
15.11.2018 11:00:00 10,3 8,4 - - 28 15 - - SSE 1017,8 10 54 0,0
15.11.2018 10:00:00 9,3 7,5 - - 16 9 - - SSE 1018,0 10 60 0,0
15.11.2018 09:00:00 7,0 5,9 9,2 11,0 29 16 - - SSE 1017,6 10 42 0,0
15.11.2018 08:00:00 6,1 5,0 - - 13 7 - - ESE 1017,8 10 0 0,0
15.11.2018 07:00:00 5,4 4,6 - - 13 7 - - ESE 1017,5 10 0 0,0
15.11.2018 06:00:00 4,8 4,1 - - 5 3 - - ESE 1017,5 13 0 0,0
15.11.2018 05:00:00 4,9 4,3 - - 9 5 - - E 1017,6 12 0 0,0
15.11.2018 04:00:00 5,5 4,7 - - 9 5 - - SE 1017,6 16 0 0,0
15.11.2018 03:00:00 5,4 4,4 - - 11 6 - - SE 1017,7 13 0 0,0
15.11.2018 02:00:00 6,6 5,5 - - 15 8 - - SE 1017,8 17 0 0,0
15.11.2018 01:00:00 6,2 4,9 - - 11 6 - - SSE 1017,9 17 0 0,0
15.11.2018 00:00:00 7,5 5,9 - - 9 5 - - SE 1018,0 21 - 0,0
14.11.2018 23:00:00 7,9 6,4 - - 18 10 - - SSE 1017,7 26 0 0,0
14.11.2018 22:00:00 8,0 6,4 - - 11 6 - - S 1017,8 24 0 0,0
14.11.2018 21:00:00 8,8 7,0 - - 18 10 - - SSE 1017,5 10 0 0,0
14.11.2018 20:00:00 9,2 7,1 - - 16 9 - - S 1017,6 10 0 0,0
14.11.2018 19:00:00 9,5 6,9 - - 11 6 - - S 1017,5 10 0 0,0
14.11.2018 18:00:00 10,4 7,3 - - 21 11 - - SSE 1017,2 10 0 0,0
14.11.2018 17:00:00 11,8 7,7 - - 16 9 - - ESE 1016,8 10 0 0,0
14.11.2018 16:00:00 12,7 7,8 - - 18 10 - - S 1016,5 10 0 0,0
14.11.2018 15:00:00 12,9 8,3 - - 18 10 - - S 1016,7 10 0 0,0
14.11.2018 14:00:00 12,8 8,5 - - 13 7 - - SE 1016,9 10 0 0,0
14.11.2018 13:00:00 13,3 8,2 - - 15 8 - - S 1016,9 10 0 0,0
14.11.2018 12:00:00 13,3 8,9 - - 21 11 - - S 1016,9 10 0 0,0
14.11.2018 11:00:00 13,0 9,1 - - 16 9 - - S 1016,9 10 0 0,0
14.11.2018 10:00:00 13,2 9,3 - - 18 10 - - SSE 1016,7 10 0 0,0
14.11.2018 09:00:00 13,2 9,4 9,4 11,0 24 13 48 26 S 1016,1 50 0 0,0
14.11.2018 08:00:00 12,9 9,3 - - 29 16 46 25 SSW 1016,0 10 0 0,0
14.11.2018 07:00:00 13,0 9,1 - - 31 17 48 26 SSW 1015,3 10 0 0,0
14.11.2018 06:00:00 12,8 8,8 - - 26 14 46 25 SSW 1015,2 50 0 0,0
14.11.2018 05:00:00 11,8 8,3 - - 31 17 52 28 S 1015,0 45 0 0,0
14.11.2018 04:00:00 11,8 8,2 - - 28 15 - - S 1015,3 45 0 0,0
14.11.2018 03:00:00 11,7 7,6 - - 22 12 - - S 1016,0 27 0 0,0
14.11.2018 02:00:00 10,6 8,3 - - 15 8 - - SSE 1017,0 27 0 0,2
14.11.2018 01:00:00 10,4 8,2 - - 16 9 - - SSE 1017,6 19 0 0,2
14.11.2018 00:00:00 10,9 7,8 - - 21 11 - - SSE 1018,2 28 - 0,0
13.11.2018 23:00:00 10,8 7,9 - - 15 8 - - SE 1018,4 30 0 0,0
13.11.2018 22:00:00 10,5 7,7 - - 18 10 - - SE 1018,8 29 0 0,0
13.11.2018 21:00:00 10,9 7,8 - - 21 11 - - SSE 1019,1 10 0 0,0
13.11.2018 20:00:00 10,7 7,7 - - 13 7 - - SE 1019,3 10 0 0,0
13.11.2018 19:00:00 10,6 7,4 - - 15 8 - - SSE 1019,9 10 0 0,0
13.11.2018 18:00:00 10,9 7,3 - - 15 8 - - S 1020,0 10 0 0,0
13.11.2018 17:00:00 11,0 7,5 - - 16 9 - - S 1019,7 10 0 0,0
13.11.2018 16:00:00 10,8 7,3 - - 11 6 - - S 1019,8 10 12 0,0
13.11.2018 15:00:00 10,1 7,3 - - 9 5 - - SSW 1019,3 10 18 0,0
13.11.2018 14:00:00 11,5 7,6 - - 24 13 - - WSW 1019,3 9 24 0,0
13.11.2018 13:00:00 13,1 6,4 - - 24 13 - - WSW 1018,6 10 54 0,0
13.11.2018 12:00:00 12,6 6,9 - - 24 13 - - WSW 1018,5 10 60 0,0
13.11.2018 11:00:00 12,2 6,8 - - 22 12 - - WSW 1017,8 10 60 0,0
13.11.2018 10:00:00 11,2 6,8 - - 21 11 - - WSW 1017,2 10 60 0,0
13.11.2018 09:00:00 9,9 6,4 9,0 11,0 13 7 - - WSW 1015,9 10 48 0,0
13.11.2018 08:00:00 8,5 5,8 - - 15 8 - - SW 1014,8 10 0 0,0
13.11.2018 07:00:00 8,8 6,2 - - 16 9 - - SW 1013,6 10 0 0,0
13.11.2018 06:00:00 8,8 6,4 - - 15 8 - - SSW 1012,3 35 0 0,0
13.11.2018 05:00:00 8,8 6,5 - - 11 6 - - SW 1011,1 27 0 0,0
13.11.2018 04:00:00 8,4 6,0 - - 13 7 - - SW 1009,9 35 0 0,2
13.11.2018 03:00:00 8,2 6,5 - - 11 6 - - SW 1008,8 28 0 0,0
13.11.2018 02:00:00 8,4 7,0 - - 15 8 - - SSW 1008,2 45 0 0,0
13.11.2018 01:00:00 7,4 6,1 - - 16 9 - - S 1007,2 29 0 0,0
13.11.2018 00:00:00 7,1 5,9 - - 8 4 - - S 1006,6 28 - 0,2
12.11.2018 23:00:00 7,5 5,7 - - 22 12 - - SSW 1005,9 50 0 2,0
12.11.2018 22:00:00 7,7 6,2 - - 13 7 - - SSW 1005,9 10 0 0,6
12.11.2018 21:00:00 8,2 6,4 - - 11 6 - - S 1005,0 10 0 1,6
12.11.2018 20:00:00 9,3 7,0 - - 15 8 - - SSE 1005,3 10 0 0,0
12.11.2018 19:00:00 9,4 7,2 - - 22 12 - - SSE 1005,0 10 0 0,0
12.11.2018 18:00:00 9,3 6,3 - - 16 9 - - SSE 1005,2 27 0 0,0
12.11.2018 17:00:00 9,2 6,3 - - 13 7 - - SE 1004,5 10 0 0,0
12.11.2018 16:00:00 9,9 7,0 - - 18 10 - - SSE 1004,0 10 18 0,0
12.11.2018 15:00:00 11,7 7,5 - - 24 13 - - S 1003,9 10 48 0,0
12.11.2018 14:00:00 11,9 8,2 - - 22 12 - - S 1003,7 10 42 0,0
12.11.2018 13:00:00 11,4 8,8 - - 28 15 - - S 1004,0 10 12 0,4
12.11.2018 12:00:00 10,5 9,2 - - 21 11 - - S 1004,1 10 18 0,0
12.11.2018 11:00:00 9,8 8,7 - - 15 8 - - SSE 1004,2 9 6 0,2
12.11.2018 10:00:00 8,2 7,5 - - 11 6 - - SSE 1004,2 10 0 0,0
12.11.2018 09:00:00 7,0 6,6 9,0 11,2 15 8 - - SSE 1003,9 10 0 0,0
12.11.2018 08:00:00 6,6 5,9 - - 8 4 - - ESE 1003,5 10 0 0,0
12.11.2018 07:00:00 6,9 6,3 - - 15 8 - - SSE 1003,2 10 0 0,0
12.11.2018 06:00:00 7,0 6,1 - - 13 7 - - SSE 1003,0 17 0 0,0
12.11.2018 05:00:00 7,1 6,1 - - 9 5 - - SE 1002,6 17 0 0,0
12.11.2018 04:00:00 7,7 6,5 - - 11 6 - - SSE 1002,3 15 0 0,0

tt = Température de l'air
td = dewpoint
tt -20cm = Température de l'air -20cm
tt -100cm = Température de l'air -100cm
ff = Vitesse du vent
fx = gusts
dd = Direction du vent
ppp = reduced air pressure
vv = visibility
sd = Ensoleillement
rr = Quantités de précipitations

stations d'obs. à proximité